Tracking 23885 objects as of 28-Nov-2021
HD Live streaming from Space Station
objects crossing your sky now

GLOBAL-14

Track GLOBAL-14 now!
10-day predictions


NORAD ID: 49469
Int'l Code: 2021-106A
Perigee: 435.7 km
Apogee: 445.2 km
Inclination: 42.0 °
Period: 93.2 minutes
Semi major axis: 6811 km
RCS: Unknown
Launch date: November 18, 2021
Source: United States (US)
Launch site: Rocket Lab Launch Complex (RLLC)
aabbcc
Your satellite tracking list
Your tracking list is empty




NASA's NSSDC Master Catalog

Two Line Element Set (TLE):
1 49469U 21106A   21332.30975238 -.00000295  00000-0  00000+0 0  9996
2 49469  42.0166 316.2711 0006974 336.8715  23.2693 15.44352390  1588
Source of the keplerian elements: AFSPC